FENGYUN 1C DEB, 36703

Orbit data source: Space-Track

FENGYUN 1C DEB, 36703 is space debris in SSO originally from a launch on Mon, 10 May 1999 UTC launched from the Taiyaun Space Center, China (TSC). Fengyun 1C debris stems from the Chinese weather satellite Fengyun-1C, which was intentionally destroyed by a Chinese anti-satellite missile in 2007. This event dramatically increased the amount of space debris, with thousands of trackable fragments posing hazards to satellites and human spaceflight. The Fengyun 1C debris cloud has become a focal point in discussions about space sustainability and the need for international regulations to prevent the creation of new debris.

Loading next visibility...
Identifier
36703, 1999-025DZZ
Orbit
SSO
Country
Flag of CNCN / PRC
Related business
Manufacturer
Unknown
Mission
Spacecraft
Bus & Motor
Unknown
Mass
Unknown
Launch date (UTC)
1999-05-10 (27 years ago)
Launch vehicle
Unknown
Launch site
Taiyaun Space Center, China (TSC)
Object type
Payload
Rocket body
Debris
Shape & HBR
Unknown shape, 0.1 m
Radar Cross Section
Small (<0.1 m²)

Expand to show TLE details & history
Last TLE update: 1 day ago

TLE from 1 day ago
0 FENGYUN 1C DEB
1 36703U 99025DZZ 26253.18856902  .00003976  00000-0  16666-2 0  9993
2 36703  97.8167  35.4084 0097717 221.0224 138.3579 14.23894544621310
Epoch: 2026-09-10T04:31Z
TLE epoch observation values (Epoch: 2026-09-10T04:31:32.363Z)
Latitude
-0.00006°
Longitude
-21.7063°
Altitude
867.977 km
Speed
7.391 km/s
True Right ascension
02h 21m 38s
True Declination
0° 00' 00"
Sunlit
Object was in full shadow at epoch
Visualization orbit readout
Latitude
Unknown
Longitude
Unknown
Altitude
Unknown
Speed
Unknown
Apparent Right ascension
Unknown
Apparent Declination
Unknown
Sunlit
N/A
Visualization observer readout
Local Sidereal Time
06:48:40
Azimuth
Unknown
Elevation
Unknown
Doppler factor
Unknown
Orbital elements
Apogee altitude
879.558 km
Perigee altitude
739.09 km
Semi-major axis
7,187.461 km
Eccentricity
0.00977
Inclination
97.8167°
RAAN
35.4084°
Arg. of periapsis
221.0224°
True anomaly
139.0952°
Mean anomaly
138.3579°
Eccentric anomaly
138.72722°
Mean motion
3.56189 °/min
Orbital period
101.07 mins
BSTAR
0.0016666
Loading maneuver chart data...
Computing Atmospheric mass density...
Loading historical data...
Loading historical data...
Loading historical data...
Loading historical data...
Loading historical data...
Loading historical data...
Loading historical data...

Documentation

Showing up to 5 results
|